SCP
0 0 0 0 0 0 0 0 0 0 0 0 0 0 0 0 0 0 0 0 0 0 0 0 0 0 0 0 0 0 0 0 0 0 0 0 0 0 0 0 0 0 0
0 0 0 0 0 0 0 0 0 0 0 0 0 0 0 0 0 0 0 0 0 0 0 0 0 0 0 0 0 0 0 0 0 0 0 0 0 0 0 0 0 0 0
0 0 0 0 0 0 0 0 0 0 0 0 0 0 0 0 0 0 0 0 0 0 0 0 0 0 0 0 0 0 0 0 0 0 0 0 0 0 0 0 0 0 0
0 0 0 0 0 0 0 0 0 0 0 0 0 0 0 0 0 0 0 0 0 0 0 0 0 0 0 0 0 0 0 0 0 0 0 0 0 0 0 0 0 0 0
0 0 0 0 0 0 0 0 0 0 0 0 0 0 0 0 0 0 0 0 0 0 0 0 0 0 0 0 0 0 0 0 0 0 0 0 0 0 0 0 0 0 0
0 0 0 0 0 0 0 0 0 0 0 0 0 0 0 0 0 0 0 0 0 0 0 0 0 0 0 0 0 0 0 0 0 0 0 0 0 0 0 0 0 0 0
0 0 0 0 0 0 0 0 0 0 0 0 0 0 0 0 0 0 0 0 0 0 0 0 0 0 0 0 0 0 0 0 0 0 0 0 0 0 0 0 0 0 0
0 0 0 0 0 0 0 0 0 0 0 0 0 0 0 0 0 0 0 0 0 0 0 0 0 0 0 0 0 0 0 0 0 0 0 0 0 0 0 0 0 0 0
0 0 0 0 0 0 0 0 0 0 0 0 0 0 0 0 0 0 0 0 0 0 0 0 0 0 0 0 0 0 0 0 0 0 0 0 0 0 0 0 0 0 0
0 0 0 0 0 0 0 0 0 0 0 0 0 0 0 0 0 0 0 0 0 0 0 0 0 0 0 0 0 0 0 0 0 0 0 0 0 0 0 0 0 0 0
0 0 0 0 0 0 0 0 0 0 0 0 0 0 0 0 0 0 0 0 0 0 0 0 0 0 0 0 0 0 0 0 0 0 0 0 0 0 0 0 0 0 0
0 0 0 0 0 0 0 0 0 0 0 0 0 0 0 0 0 0 0 0 0 0 0 0 0 0 0 0 0 0 0 0 0 0 0 0 0 0 0 0 0 0 0
0 0 0 0 0 0 0 0 0 0 0 0 0 0 0 0 0 0 0 0 0 0 0 0 0 0 0 0 0 0 0 0 0 0 0 0 0 0 0 0 0 0 0
0 0 0 0 0 0 0 0 0 0 0 0 0 0 0 1 1 0 0 0 0 0 0 0 0 0 0 0 0 0 0 0 0 0 0 0 0 0 0 0 0 0 0
0 0 0 0 0 0 0 0 0 0 0 0 0 0 0 0 0 0 0 0 0 0 0 0 0 0 0 0 0 0 0 0 0 0 0 0 0 0 0 0 0 0 0
0 0 0 0 0 0 0 0 0 0 0 0 0 0 0 0 0 0 0 0 0 0 0 0 0 0 0 0 0 0 0 0 0 0 0 0 0 0 0 0 0 0 0
0 0 0 0 0 0 0 0 0 0 0 0 0 0 0 0 0 0 0 0 0 0 0 0 0 0 0 0 0 0 0 0 0 0 0 0 0 0 0 0 0 0 0
0 0 0 0 0 0 0 0 0 0 0 0 0 0 0 0 0 0 0 0 0 0 0 0 0 0 0 0 0 0 0 0 0 0 0 0 0 0 0 0 0 0 0
0 0 0 0 0 0 0 0 0 0 0 0 0 0 0 0 0 0 0 0 0 0 0 0 0 0 0 0 0 0 0 0 0 0 0 0 0 0 0 0 0 0 0
0 0 0 0 0 0 0 0 0 0 0 0 0 0 0 0 0 0 0 0 0 0 0 0 0 0 0 0 0 0 0 0 0 0 0 0 0 0 0 0 0 0 0
0 0 0 0 0 0 0 0 0 0 0 0 0 0 0 0 0 0 0 0 0 0 0 0 0 0 0 0 0 0 0 0 0 0 0 0 0 0 0 0 0 0 0
0 0 0 0 0 0 0 0 0 0 0 0 0 0 0 0 0 0 0 0 0 0 0 0 0 0 0 0 0 0 0 0 0 0 0 0 0 0 0 0 0 0 0
0 0 0 0 0 0 0 0 0 0 0 0 0 0 0 0 0 0 0 0 0 0 0 0 0 0 0 0 0 0 0 0 0 0 0 0 0 0 0 0 0 0 0
0 0 0 0 0 0 0 0 0 0 0 0 0 0 0 0 0 0 0 0 0 0 0 0 0 0 0 0 0 0 0 0 0 0 0 0 0 0 0 0 0 0 0
0 0 0 0 0 0 0 0 0 0 0 0 0 0 0 0 0 0 0 0 0 0 0 0 0 0 0 0 0 0 0 0 0 0 0 0 0 0 0 0 0 0 0
0 0 0 0 0 0 0 0 0 0 0 0 0 0 0 0 0 0 0 0 0 0 0 0 0 0 0 0 0 0 0 0 0 0 0 0 0 0 0 0 0 0 0
Wind_Speed
6 9 8 9 9 9 9 10 11 11 11 11 11 11 10 10 10 10 12 14 14 14 14 14 14 14 13 12 12 12 12 12 13 13 12 12 13 13 14 13 9 10 13
5 10 8 9 9 8 9 10 10 10 11 10 10 10 9 9 9 10 12 13 14 14 14 14 13 13 12 11 11 10 10 10 10 10 7 8 11 11 13 13 13 11 14
6 11 11 8 9 8 8 8 9 10 10 10 9 9 8 8 8 9 11 12 13 13 13 13 13 13 12 11 10 9 8 8 7 6 2 5 8 10 11 12 12 13 14
5 10 10 10 9 9 9 8 8 9 9 9 8 8 7 7 8 9 10 11 12 12 13 13 13 13 12 11 11 9 8 7 6 2 3 5 5 8 9 10 11 12 13
4 8 9 8 9 9 9 8 8 8 8 8 8 8 7 7 7 8 9 11 11 12 12 12 13 13 12 12 11 9 8 7 3 1 5 4 5 7 8 9 9 10 11
3 6 8 6 7 9 9 9 8 8 8 8 7 7 7 7 7 8 10 11 11 12 12 12 12 12 12 12 11 9 8 6 2 4 5 5 6 7 8 8 7 8 8
4 2 4 4 5 8 9 9 8 8 8 7 6 6 6 6 7 8 10 11 11 11 11 11 11 12 12 12 11 10 9 7 5 5 4 5 8 9 8 7 6 6 7
7 4 2 1 2 5 7 8 8 8 7 7 6 6 6 6 7 9 10 11 11 11 11 10 11 11 12 12 11 10 10 8 4 5 5 5 9 8 8 8 7 6 6
9 8 6 3 2 4 5 7 7 7 7 7 6 6 6 6 6 8 9 11 11 11 11 10 10 10 11 11 11 10 10 9 5 4 5 5 9 7 7 7 6 6 5
9 9 7 6 4 3 6 7 7 7 7 7 7 6 6 6 7 7 8 10 11 12 12 10 9 9 9 10 10 9 8 5 6 5 4 7 11 8 6 6 6 5 5
9 9 7 6 4 4 4 4 6 7 7 7 7 7 7 6 6 6 7 10 11 11 12 10 9 8 6 7 8 7 5 4 5 4 5 10 11 10 7 6 6 5 5
10 10 7 7 5 4 3 4 5 5 5 6 5 5 5 4 3 4 8 10 10 11 11 11 10 7 3 3 4 2 3 4 4 4 5 11 11 11 9 8 6 5 5
9 9 8 7 5 3 3 3 2 2 2 3 4 4 3 3 3 3 4 6 6 7 6 8 6 3 2 3 3 3 3 3 3 3 4 9 11 11 11 10 8 6 5
9 10 9 7 3 2 3 3 2 1 1 1 2 2 1 2 2 2 2 3 3 2 2 2 1 2 2 2 2 3 3 3 3 3 4 7 9 11 11 11 11 9 6
9 10 11 8 2 2 4 3 3 4 5 6 6 5 4 2 1 2 2 2 2 2 1 1 1 1 1 2 3 3 3 4 4 4 3 4 8 9 11 12 12 12 10
9 10 10 9 6 5 6 6 6 7 8 9 9 10 9 6 5 5 4 4 4 3 3 3 3 2 2 3 3 4 4 4 4 4 5 4 4 7 9 10 12 13 13
8 9 10 9 9 10 11 11 9 9 9 9 8 11 11 9 8 7 6 6 5 5 4 4 4 2 2 1 2 2 3 3 4 4 4 4 5 5 7 10 11 12 13
8 8 9 8 11 13 12 11 9 10 10 9 9 9 13 12 10 8 7 7 6 5 4 4 4 3 3 2 3 3 3 3 4 4 4 4 4 5 6 9 11 12 13
7 7 8 9 11 12 12 12 12 11 11 9 9 9 11 12 11 9 8 7 7 6 6 5 5 4 4 4 4 4 3 3 4 4 5 5 5 5 6 7 9 10 12
6 6 7 8 9 9 9 10 10 12 11 10 10 11 12 11 12 10 9 10 8 7 7 6 6 6 5 5 4 4 3 3 3 4 5 5 5 6 7 8 7 7 11
7 7 7 7 6 5 5 6 7 8 9 10 10 13 13 13 13 11 9 10 10 9 10 9 6 7 8 7 5 4 2 2 5 5 5 5 7 7 8 9 7 7 7
7 7 7 7 7 7 7 7 7 9 9 9 9 12 14 14 13 11 12 10 10 9 12 12 10 7 7 8 6 5 4 1 4 5 5 5 7 8 9 10 10 9 8
7 7 6 8 9 10 10 9 9 8 7 8 10 10 13 14 14 13 14 12 11 11 10 12 11 12 8 8 9 7 5 6 7 3 5 5 9 9 10 10 11 11 10
6 6 7 8 9 9 8 9 10 9 9 8 8 9 11 12 13 13 13 12 11 10 11 10 11 9 9 7 6 7 6 5 6 7 5 5 9 10 10 10 11 11 10
6 6 7 9 10 10 10 11 13 13 11 9 9 11 10 10 11 11 11 10 10 9 10 10 9 9 7 7 6 5 5 4 5 5 9 10 9 7 9 11 9 8 9
6 7 8 10 10 10 11 11 13 15 13 12 10 9 8 6 7 10 9 9 9 8 8 8 7 8 7 7 5 5 4 4 5 6 9 12 12 10 11 8 7 7 9
Wind_Direction
172 164 144 147 141 133 123 114 111 110 108 107 106 104 102 97 94 92 92 86 79 73 68 65 61 58 54 51 49 47 48 50 55 59 62 62 60 58 52 40 37 59 51
157 165 148 153 146 139 129 124 123 120 117 114 112 108 103 97 94 95 95 89 81 74 68 63 59 54 50 47 46 47 49 52 56 54 51 77 67 60 58 52 47 52 53
158 165 162 159 149 141 131 128 129 127 125 121 116 110 103 96 94 98 100 90 81 73 66 58 52 46 41 39 38 40 48 57 61 48 5 65 76 68 62 58 56 55 54
159 169 170 156 155 148 141 139 137 134 132 127 122 115 107 99 94 99 100 89 80 71 63 54 47 41 36 33 31 33 42 56 59 348 42 49 65 76 69 64 61 58 57
154 178 168 163 162 157 153 151 149 142 138 134 130 124 115 106 98 100 100 88 78 68 60 51 43 37 34 31 29 32 40 48 40 344 48 40 53 75 74 70 67 65 60
120 178 174 176 173 166 163 163 160 153 148 144 141 136 127 118 111 107 101 90 78 69 61 51 42 36 32 30 30 36 40 30 328 50 45 34 43 64 69 72 72 71 65
75 136 175 183 191 179 174 174 171 165 159 156 154 151 142 133 129 120 109 97 86 75 66 56 44 37 34 32 33 38 37 14 24 51 45 41 41 45 51 54 61 64 61
48 49 57 144 235 205 189 185 181 175 170 170 172 171 164 154 146 133 119 107 95 85 75 62 49 41 37 35 36 38 33 10 31 43 39 41 27 31 38 33 34 43 47
41 33 21 354 247 232 219 206 197 189 185 184 186 184 177 172 163 145 130 119 107 96 89 75 59 48 40 37 38 38 32 8 9 30 24 28 7 17 30 24 18 21 26
37 28 15 1 331 268 230 218 220 211 204 201 200 194 190 186 174 154 144 126 114 108 104 92 80 66 52 42 37 31 20 350 22 18 16 17 1 1 12 12 6 2 2
21 17 8 355 337 306 264 235 229 223 221 222 214 205 204 206 184 165 144 129 123 121 118 110 104 91 74 58 43 27 6 15 14 13 16 5 356 352 350 355 353 349 346
360 358 354 342 327 295 257 234 229 223 222 226 230 219 212 208 184 154 137 136 134 135 132 129 125 117 82 51 57 26 25 13 5 14 21 4 355 348 342 340 338 339 339
348 351 347 335 310 277 226 213 210 209 221 236 247 244 221 203 178 172 149 143 144 146 144 144 147 131 97 68 42 39 27 10 6 3 17 6 357 351 344 338 333 328 326
357 355 348 339 309 240 202 178 158 109 66 42 15 331 240 198 189 179 160 150 149 150 149 155 140 134 124 103 70 48 33 12 3 354 5 3 355 354 351 345 336 325 310
2 354 347 346 9 141 153 116 90 70 56 47 35 23 26 40 69 73 68 69 74 66 79 74 66 87 41 32 29 19 20 12 356 346 343 358 348 351 351 350 345 335 323
358 350 349 5 41 88 92 80 66 57 55 51 43 35 38 43 54 65 63 57 54 50 48 47 44 35 33 18 10 1 347 348 345 336 333 334 339 346 347 346 347 348 346
354 353 3 20 51 67 68 67 62 60 60 55 47 41 43 46 55 62 60 53 46 48 57 65 62 56 48 12 347 333 315 310 310 318 326 330 334 345 346 346 344 343 342
5 9 20 39 60 66 69 68 65 60 59 54 47 44 45 48 54 61 59 53 50 49 47 50 41 42 34 356 327 314 298 293 297 314 324 335 339 340 345 352 345 341 337
19 25 40 53 67 74 76 75 70 64 57 52 48 45 45 48 53 61 58 52 51 53 48 47 43 29 16 353 329 312 301 305 325 336 344 353 355 350 344 344 337 332 333
42 50 60 67 75 85 84 81 75 66 59 53 49 45 46 48 50 58 58 51 47 47 42 38 48 40 18 346 320 310 317 352 11 23 19 27 24 12 359 352 341 339 334
61 65 70 78 78 92 90 85 78 69 63 59 52 49 49 49 51 54 57 52 49 49 42 33 32 36 25 357 336 331 4 65 54 47 40 39 37 24 11 2 353 345 334
72 73 77 78 81 83 90 91 87 90 75 70 64 56 54 54 52 53 55 55 50 52 46 38 33 32 35 23 1 338 342 11 26 21 30 28 19 6 357 351 342 335 328
75 73 81 86 88 91 99 103 107 99 88 73 65 60 54 58 59 59 59 59 54 52 49 42 36 36 36 36 30 13 358 347 329 338 6 4 1 348 342 340 335 329 326
85 88 92 93 94 98 108 112 110 104 98 90 84 79 69 60 60 60 61 60 58 55 52 46 42 39 38 33 30 29 25 350 333 322 322 348 345 334 335 335 329 330 330
102 102 103 100 95 97 101 106 106 104 105 106 100 90 80 68 61 59 59 60 58 54 50 47 43 41 38 34 27 11 4 359 355 315 314 324 324 326 327 322 317 321 329
120 115 114 109 102 104 107 108 111 115 119 116 109 102 89 80 68 61 60 60 56 52 46 42 42 42 36 33 26 20 2 347 339 323 312 316 316 318 316 305 305 319 322